DW2851 Weather Reports


Display with metric or nautical units.
time (UTC)temp
F
wind
direction
speed
MPH
gust
MPH
rain 1hr
in
rain 24hr
in
rain mn
in
humidity
%
barometer
mb
20180221052738 0 0.0 0.0 0.00 0.00 0.00 1028.5
20180221051236 0 0.0 0.0 0.00 0.00 0.00 1028.5
20180221045729 0 0.0 0.0 0.00 0.00 0.00 1028.6
20180221044225 0 0.0 0.0 0.00 0.00 0.00 1028.7
20180221042722 0 0.0 0.0 0.00 0.00 0.00 1028.7
20180221041220 42 32 1.0 5.0 0.00 0.00 0.00 93 1028.8
20180221035715 41 32 1.0 5.0 0.00 0.01 0.00 93 1028.8
20180221034218 42 32 2.0 5.0 0.00 0.01 0.00 93 1028.8
20180221032714 42 34 0.0 4.0 0.00 0.01 0.00 93 1028.8
20180221031213 42 34 1.0 6.0 0.00 0.01 0.00 93 1028.9
20180221025713 42 34 2.0 6.0 0.00 0.01 0.00 93 1028.9
20180221024212 42 33 1.0 8.0 0.00 0.01 0.00 93 1028.8
20180221022716 42 34 3.0 9.0 0.00 0.01 0.00 93 1028.8
20180221021212 41 21 1.0 6.0 0.00 0.01 0.00 93 1028.9
20180221015708 41 67 1.0 5.0 0.00 0.02 0.00 93 1028.7
20180221014208 41 67 0.0 4.0 0.00 0.02 0.00 94 1028.6
20180221012705 42 67 0.0 5.0 0.00 0.02 0.00 94 1028.6
20180221011207 42 68 0.0 4.0 0.00 0.02 0.00 94 1028.6
20180221005703 42 68 0.0 3.0 0.00 0.02 0.00 94 1028.5
20180221004203 42 68 0.0 2.0 0.00 0.02 0.00 94 1028.5
20180221002658 42 68 2.0 5.0 0.00 0.02 0.00 94 1028.4
20180221001156 41 65 0.0 0.0 0.00 0.02 0.00 94 1028.4
20180220235654 41 65 0.0 0.0 0.00 0.02 0.02 94 1028.3
20180220234155 41 65 0.0 0.0 0.00 0.02 0.02 95 1028.1
20180220232656 41 65 0.0 3.0 0.00 0.02 0.02 95 1028.1
20180220231154 41 65 0.0 2.0 0.00 0.02 0.02 95 1027.9
20180220225650 41 65 0.0 2.0 0.00 0.04 0.02 94 1027.8
20180220224150 41 65 0.0 0.0 0.00 0.04 0.02 95 1027.7
20180220222651 41 65 0.0 1.0 0.00 0.04 0.02 95 1027.7
20180220221147 41 65 2.0 5.0 0.00 0.04 0.02 95 1027.5
20180220215649 41 65 2.0 5.0 0.00 0.05 0.02 94 1027.5
20180220214143 41 65 1.0 4.0 0.00 0.05 0.02 94 1027.2
20180220212646 41 65 3.0 6.0 0.00 0.05 0.02 94 1027.1
20180220211141 42 62 4.0 10.0 0.00 0.05 0.02 94 1027.1
20180220205640 42 65 6.0 11.0 0.00 0.05 0.02 93 1027.0
20180220204142 42 43 2.0 12.0 0.00 0.05 0.02 93 1026.9
20180220202637 43 12 7.0 15.0 0.00 0.05 0.02 93 1026.6
20180220201137 43 36 6.0 14.0 0.00 0.05 0.02 92 1026.3
20180220195633 43 51 7.0 14.0 0.00 0.05 0.02 92 1026.1
20180220194131 43 38 7.0 14.0 0.00 0.05 0.02 91 1025.8
20180220192630 43 5 10.0 18.0 0.00 0.05 0.02 91 1025.6
20180220191130 43 29 6.0 17.0 0.00 0.05 0.02 90 1025.4
20180220185633 43 52 9.0 20.0 0.00 0.05 0.02 90 1025.3
20180220184124 43 40 9.0 18.0 0.00 0.05 0.02 89 1024.9
20180220182628 43 39 7.0 15.0 0.00 0.05 0.02 88 1024.8
20180220181125 43 336 6.0 13.0 0.00 0.05 0.02 88 1024.5
20180220175622 43 30 5.0 15.0 0.00 0.05 0.02 87 1024.6
20180220174121 43 330 5.0 13.0 0.00 0.05 0.02 87 1024.6
20180220172620 43 253 6.0 14.0 0.00 0.05 0.02 86 1024.5
20180220171120 43 286 6.0 13.0 0.00 0.05 0.02 86 1024.5
20180220165616 43 360 6.0 12.0 0.00 0.06 0.02 86 1024.3
20180220164116 44 17 4.0 12.0 0.00 0.06 0.02 86 1024.1
20180220162615 44 38 4.0 12.0 0.00 0.06 0.02 85 1024.1
20180220161117 44 329 6.0 15.0 0.00 0.06 0.02 85 1024.1
20180220155615 44 342 6.0 17.0 0.00 0.06 0.02 84 1024.0
20180220154112 44 336 7.0 15.0 0.00 0.06 0.02 84 1023.8
20180220152613 44 312 5.0 13.0 0.00 0.06 0.02 84 1023.7
20180220151112 44 5 6.0 14.0 0.00 0.06 0.02 84 1023.6
20180220145610 44 304 8.0 14.0 0.00 0.08 0.02 84 1023.6
20180220144107 44 40 7.0 15.0 0.00 0.08 0.02 83 1023.6
20180220142604 45 9 10.0 19.0 0.00 0.08 0.02 82 1023.3
20180220141102 45 30 5.0 17.0 0.00 0.08 0.02 82 1023.2
20180220135601 45 28 8.0 17.0 0.00 0.08 0.02 83 1023.2
20180220134100 45 337 6.0 17.0 0.00 0.08 0.02 83 1023.0
20180220132558 45 355 6.0 15.0 0.00 0.08 0.02 83 1022.9
20180220131057 45 57 6.0 16.0 0.00 0.08 0.02 83 1022.7
20180220125555 45 5 8.0 18.0 0.00 0.09 0.02 82 1022.4
20180220124053 45 360 8.0 17.0 0.00 0.09 0.02 82 1022.4
20180220122555 45 62 5.0 12.0 0.00 0.09 0.02 82 1022.2
20180220121054 44 24 8.0 18.0 0.00 0.09 0.02 82 1021.8
20180220115550 44 5 4.0 17.0 0.00 0.10 0.02 84 1021.9
20180220114047 44 328 7.0 15.0 0.00 0.10 0.02 84 1021.8
20180220112546 44 348 6.0 16.0 0.00 0.10 0.02 87 1021.6
20180220111044 43 311 5.0 16.0 0.00 0.10 0.02 90 1021.5
20180220105541 42 317 4.0 16.0 0.00 0.10 0.02 91 1021.5
20180220104042 42 231 5.0 13.0 0.00 0.10 0.02 91 1021.3
20180220102539 42 150 5.0 13.0 0.00 0.10 0.02 91 1021.4
20180220101038 42 40 4.0 13.0 0.00 0.10 0.02 91 1021.4
20180220095537 42 25 5.0 10.0 0.00 0.11 0.02 91 1021.2
20180220094036 42 20 2.0 11.0 0.00 0.11 0.02 91 1021.4
20180220092537 42 325 2.0 11.0 0.00 0.11 0.02 92 1021.5
20180220091037 42 276 4.0 10.0 0.00 0.11 0.02 92 1021.4
20180220085530 42 331 3.0 13.0 0.00 0.11 0.02 92 1021.1
20180220084028 42 336 4.0 13.0 0.00 0.11 0.02 92 1020.9
20180220082525 0 0.0 0.0 0.00 0.11 0.02 1020.7
20180220081021 0 0.0 0.0 0.00 0.11 0.02 1020.7
20180220075519 0 0.0 0.0 0.00 0.11 0.02 1020.4
20180220074012 0 0.0 0.0 0.00 0.11 0.02 1020.2
20180220072510 0 0.0 0.0 0.00 0.11 0.02 1020.1
20180220071003 0 0.0 0.0 0.00 0.11 0.02 1019.7
20180220065501 0 0.0 0.0 0.00 0.11 0.02 1019.4
20180220063954 0 0.0 0.0 0.00 0.11 0.02 1019.1
20180220062449 0 0.0 0.0 0.00 0.11 0.02 1019.1
20180220060945 0 0.0 0.0 0.00 0.11 0.02 1018.8
20180220055441 0 0.0 0.0 0.00 0.11 0.02 1018.7
20180220053938 0 0.0 0.0 0.00 0.11 0.02 1018.6